This is the latest recevied weather packets stored in our database for station/object SP5FLS-15. If no packets are shown the sender has not sent any weather packets the latest 10 day(s).
| Time | Temp. | Humidity | Pressure | Rain* | Wind** | Luminosity | Snow |
|---|---|---|---|---|---|---|---|
| 1777780202 | 8.33° C | 77% | 1015.8 hPa | - | - | - | - |
| 1777779902 | 7.78° C | 78% | 1015.8 hPa | - | - | - | - |
| 1777779302 | 7.78° C | 76% | 1016 hPa | - | - | - | - |
| 1777779002 | 7.78° C | 77% | 1015.7 hPa | - | - | - | - |
| 1777778702 | 7.78° C | 78% | 1015.9 hPa | - | - | - | - |
| 1777778401 | 7.78° C | 76% | 1015.7 hPa | - | - | - | - |
| 1777778102 | 7.78° C | 77% | 1016.1 hPa | - | - | - | - |
| 1777777801 | 7.78° C | 76% | 1015.9 hPa | - | - | - | - |
| 1777777502 | 7.78° C | 77% | 1015.6 hPa | - | - | - | - |
| 1777777201 | 7.78° C | 78% | 1015.7 hPa | - | - | - | - |
| 1777776902 | 7.78° C | 79% | 1015.6 hPa | - | - | - | - |
| 1777776603 | 7.78° C | 80% | 1015.6 hPa | - | - | - | - |
| 1777776302 | 7.78° C | 80% | 1015.9 hPa | - | - | - | - |
| 1777776002 | 7.78° C | 81% | 1015.7 hPa | - | - | - | - |
| 1777775702 | 7.78° C | 83% | 1015.6 hPa | - | - | - | - |
| 1777775401 | 7.78° C | 82% | 1015.9 hPa | - | - | - | - |
| 1777775102 | 7.78° C | 84% | 1015.6 hPa | - | - | - | - |
| 1777774801 | 7.78° C | 82% | 1016 hPa | - | - | - | - |
| 1777774502 | 7.78° C | 85% | 1015.7 hPa | - | - | - | - |
| 1777774202 | 7.78° C | 86% | 1015.7 hPa | - | - | - | - |
| 1777773902 | 7.78° C | 85% | 1015.9 hPa | - | - | - | - |
| 1777773601 | 7.78° C | 84% | 1015.7 hPa | - | - | - | - |
| 1777773302 | 8.33° C | 84% | 1015.3 hPa | - | - | - | - |
| 1777773002 | 7.78° C | 84% | 1015.5 hPa | - | - | - | - |
| 1777772702 | 7.78° C | 84% | 1016 hPa | - | - | - | - |
* Rain since midnight (hover to see other rain measurements)
** Current wind speed in m/s (hover to see current wind gust speed)